This demonstration page uses our WeatherBlox Daily Observations layout. Learn more.

Left ArrowRight Arrow

40.92501, -98.34201

Hourly Observations for September 15, 2022

Temp ( °F °C ) Dew Point ( °F °C ) Humidity (%) Winds ( mph kmh ) Pressure ( in mb ) Visibility ( mi km ) Precip ( " mm )
12:53 am 00:53 Clear 75 23.9 58 14.4 55 55 S 12 19 29.93 1013 10 16 0.00 0.00
1:53 am 01:53 Clear 75 23.9 57 13.9 54 54 S 16 26 29.93 1014 10 16 0.00 0.00
2:53 am 02:53 Clear 72 22.2 56 13.3 57 57 S 12 19 29.94 1014 10 16 0.00 0.00
3:53 am 03:53 Clear 70 21.1 54 12.2 57 57 SSE 13 20 29.94 1014 10 16 0.00 0.00
4:53 am 04:53 Clear 69 20.6 51 10.6 53 53 S 15 24 29.94 1014 10 16 0.00 0.00
5:53 am 05:53 Clear 67 19.4 50 10 55 55 S 12 19 29.96 1014 10 16 0.00 0.00
6:53 am 06:53 Mostly Clear 66 18.9 51 10.6 59 59 S 8 13 29.96 1014 10 16 0.00 0.00
7:53 am 07:53 Sunny 67 19.4 51 10.6 57 57 S 10 17 29.97 1015 10 16 0.00 0.00
8:53 am 08:53 Sunny 70 21.1 52 11.1 53 53 S 14 22 29.96 1014 10 16 0.00 0.00
9:53 am 09:53 Partly Cloudy 71 21.7 53 11.7 53 53 S 12 19 29.96 1015 10 16 0.00 0.00
10:53 am 10:53 Sunny 77 25 55 12.8 47 47 S 15 24 29.95 1014 10 16 0.00 0.00
11:53 am 11:53 Sunny 82 27.8 57 13.9 43 43 S 17 28 29.93 1013 10 16 0.00 0.00
12:53 pm 12:53 Sunny 84 28.9 57 13.9 40 40 SSE 20 31 29.90 1012 10 16 0.00 0.00
1:53 pm 13:53 Sunny 87 30.6 58 14.4 37 37 S 16 26 29.88 1012 10 16 0.00 0.00
2:53 pm 14:53 Sunny 89 31.7 58 14.4 35 35 S 15 24 29.85 1011 10 16 0.00 0.00
3:53 pm 15:53 Sunny 90 32.2 57 13.9 33 33 S 18 30 29.85 1011 10 16 0.00 0.00
4:53 pm 16:53 Mostly Sunny 89 31.7 57 13.9 34 34 S 18 30 29.84 1011 10 16 0.00 0.00
5:53 pm 17:53 Mostly Cloudy 88 31.1 58 14.4 36 36 S 12 19 29.83 1010 10 16 0.00 0.00
6:53 pm 18:53 Mostly Cloudy 85 29.4 58 14.4 40 40 SSE 15 24 29.83 1010 10 16 0.00 0.00
7:53 pm 19:53 Partly Cloudy 81 27.2 59 15 47 47 SSE 16 26 29.83 1010 10 16 0.00 0.00
8:38 pm 20:38 Mostly Clear with Nearby Thunderstorms 77 25 60 15.6 56 56 SSE 13 20 29.79 1009 10 16 0.00 0.00
8:53 pm 20:53 Clear 77 25 60 15.6 56 56 S 14 22 29.86 1011 10 16 0.00 0.00
9:27 pm 21:27 Cloudy 77 25 59 15 54 54 WSW 17 28 29.85 1011 10 16 0.00 0.00
9:53 pm 21:53 Mostly Cloudy 72 22.2 58 14.4 61 61 WSW 8 13 29.91 1013 10 16 0.00 0.00
10:53 pm 22:53 Clear 74 23.3 60 15.6 62 62 SW 14 22 29.90 1013 10 16 0.00 0.00
11:53 pm 23:53 Clear 72 22.2 62 16.7 71 71 WSW 15 24 29.93 1014 10 16 0.00 0.00

Powered by AerisWeather